Wind_Speed
27 28 29 29 30 31 31 30 31 31 33 33 32 32 32 31 31 31 31 31 31 31 31 31 31 32 32 33 33 33 33 33 33 33 33 33 33 32 32 32 32 32 33 33 34 34 35 35 36 36 36 35 35 35 35 34 34 33 33 33 33 33 33 33 33 33 33 33 33 33 33 33 33 33 34 34 34 34 34 35 35 35 35 35 35 36
28 29 29 29 29 30 30 29 29 29 31 32 32 32 31 32 32 32 31 31 30 30 31 31 32 32 33 33 34 33 33 32 32 32 32 32 32 32 32 32 32 33 33 34 35 35 36 36 36 35 35 35 35 35 35 34 34 33 33 33 33 33 33 33 33 33 33 33 33 33 34 34 34 34 34 34 34 34 34 35 35 35 35 36 36 36
29 29 29 28 28 28 29 29 29 30 31 32 32 32 31 32 32 32 32 31 31 31 31 32 32 33 33 33 33 33 33 32 32 32 32 32 32 32 32 32 33 33 34 35 36 36 36 35 35 35 35 35 35 34 34 34 34 33 33 33 33 33 33 33 34 34 34 33 34 34 34 34 34 34 34 34 34 35 35 35 35 35 35 36 35 35
28 29 28 27 27 27 28 29 30 31 31 31 31 31 31 31 32 32 32 32 32 32 32 32 32 32 33 33 33 33 33 32 31 31 31 31 31 32 32 33 34 35 36 36 36 35 34 34 34 34 34 34 34 34 34 34 34 33 33 33 33 34 34 34 34 34 34 34 34 34 34 34 34 34 34 34 35 35 35 35 35 35 36 36 36 36
27 27 27 27 27 28 29 30 30 31 30 30 30 31 31 31 32 32 32 32 33 32 32 31 31 32 32 33 34 34 33 32 31 30 31 31 32 33 34 36 36 36 36 35 34 33 33 33 34 34 34 34 34 34 34 34 33 33 34 34 34 34 34 34 34 34 34 34 34 34 34 34 34 34 34 34 34 34 35 35 35 36 36 36 37 37
27 26 27 28 28 29 30 30 30 30 30 30 30 30 31 32 33 33 32 32 31 31 31 31 31 32 33 33 34 33 32 31 31 31 32 33 34 36 36 36 36 35 34 33 33 33 33 33 33 33 33 34 34 34 34 34 34 34 34 34 35 35 35 34 34 34 34 34 34 33 34 34 34 34 34 34 34 34 35 35 35 35 35 36 36 37
28 27 27 28 29 29 29 28 28 29 30 31 31 32 33 33 32 32 31 31 31 31 31 32 32 33 33 33 33 32 32 32 33 33 34 36 37 37 36 35 34 34 33 33 33 33 33 33 33 33 33 33 33 33 33 33 34 34 34 34 35 35 35 34 34 34 33 33 33 33 33 33 33 33 33 33 34 34 34 34 34 34 35 35 35 35
29 29 28 28 28 28 28 27 27 28 30 32 33 34 34 32 31 30 30 30 31 31 31 32 32 32 32 32 32 32 32 33 34 36 37 37 37 36 35 34 34 33 33 33 33 33 33 33 33 33 33 33 33 33 33 33 34 34 34 34 34 34 34 34 34 34 33 33 32 32 32 32 32 32 32 32 33 33 33 33 34 34 34 34 34 35
28 29 28 26 26 28 29 29 29 29 31 32 33 32 32 31 31 30 30 30 30 31 31 31 31 31 31 31 31 32 33 33 34 36 36 36 36 35 35 34 34 34 33 33 33 33 33 33 34 34 34 34 34 33 33 33 34 34 34 34 34 34 34 34 33 33 32 31 31 31 31 31 31 31 31 31 31 32 32 33 33 33 34 34 34 34
26 27 28 27 26 27 30 33 34 33 32 30 29 28 28 30 31 32 31 30 30 30 30 30 30 31 32 32 32 33 34 34 35 35 35 35 35 34 34 33 33 34 34 34 34 34 35 35 35 35 34 34 34 34 33 33 33 33 33 33 33 33 33 32 31 31 30 30 30 30 30 30 30 30 30 31 31 31 32 32 33 33 33 34 34 34
27 27 28 28 29 30 32 34 35 33 30 28 27 26 26 27 29 31 32 31 30 30 29 29 30 31 32 33 33 34 34 35 36 36 36 35 34 34 33 33 33 34 35 35 36 36 36 36 35 35 35 34 34 34 33 33 33 33 33 33 32 32 31 30 30 30 29 29 30 30 30 30 30 30 31 31 31 32 32 32 33 33 34 34 34 34
28 29 30 31 33 34 34 33 31 28 26 27 28 28 28 27 27 29 30 31 31 31 30 30 30 31 32 33 34 35 34 34 35 35 35 35 34 34 33 33 34 35 37 37 38 38 38 37 36 36 35 35 34 33 33 33 33 33 32 32 31 31 30 30 30 30 30 30 30 30 31 31 31 31 32 32 32 32 33 33 33 33 34 34 34 34
28 29 31 33 34 33 32 29 27 26 27 27 28 29 29 28 27 28 29 30 31 31 31 31 31 32 33 34 34 34 33 33 34 34 34 34 34 33 33 34 35 37 38 39 39 40 39 38 37 36 35 34 34 34 33 33 33 33 32 31 31 31 31 31 31 31 31 31 31 31 31 31 32 32 32 32 32 32 33 33 33 33 34 34 34 35
28 29 31 33 33 31 28 27 27 28 28 28 28 28 28 28 28 28 29 29 30 30 31 31 33 34 34 33 33 32 32 32 32 32 32 33 33 34 34 34 36 38 39 39 40 40 39 38 37 36 36 35 35 34 34 34 33 32 32 32 31 32 32 32 32 32 32 31 31 31 31 31 31 31 32 32 32 32 33 33 33 34 34 35 35 35
31 33 34 33 30 27 26 27 28 29 29 29 28 28 29 28 28 28 28 29 30 30 31 32 33 34 33 32 31 31 30 30 29 30 31 33 35 35 35 35 37 38 39 39 39 39 38 37 36 36 36 36 36 35 34 33 33 32 32 32 32 33 33 32 32 32 31 31 31 31 31 31 31 31 32 32 32 33 33 33 34 34 34 35 35 35
34 34 32 30 28 27 28 28 29 29 29 29 28 28 28 28 28 27 27 29 30 31 31 32 33 34 34 32 31 29 28 28 28 29 31 35 37 38 37 36 37 39 39 39 38 38 37 36 36 36 36 36 36 35 34 33 33 33 33 33 33 33 33 33 33 32 32 32 32 32 32 32 32 31 31 32 32 32 33 33 33 33 34 34 35 35
33 31 29 27 28 29 30 29 29 29 29 28 28 27 27 27 27 28 29 30 31 31 31 32 32 33 33 34 32 29 27 27 28 31 33 36 40 41 39 37 37 38 38 37 36 36 36 36 36 36 36 36 36 35 34 33 33 33 33 33 33 33 33 34 34 34 34 33 33 33 33 32 32 31 31 31 32 32 32 32 33 33 33 34 34 34
32 29 28 29 30 30 31 30 29 29 28 27 27 27 27 28 29 29 30 31 31 32 32 33 32 31 32 33 33 31 30 29 30 33 36 39 41 42 40 37 35 35 35 36 36 35 35 35 36 36 36 36 36 35 34 34 34 34 33 33 34 34 34 34 34 34 34 34 34 34 33 33 32 32 31 31 31 31 31 31 32 32 33 33 33 33
31 31 31 31 31 31 30 30 29 28 27 27 27 28 29 30 31 31 32 33 33 34 35 34 34 33 33 33 34 34 33 32 33 35 37 40 42 41 39 35 33 33 34 35 35 35 35 36 36 37 37 37 36 35 34 34 34 34 34 34 34 34 34 34 34 33 33 32 32 32 31 31 31 30 30 30 30 30 30 30 30 31 32 32 32 33
32 33 32 31 30 30 30 29 29 28 27 28 29 30 31 32 33 33 33 35 36 37 36 34 33 32 32 33 35 37 36 36 36 37 37 39 41 40 37 33 32 32 34 35 35 35 35 35 36 37 37 37 36 35 34 34 34 34 34 34 34 34 33 33 32 31 31 30 30 29 29 29 28 28 28 29 30 30 30 30 30 30 31 31 31 32
32 32 31 30 30 30 30 30 29 29 29 30 32 34 34 34 34 34 36 36 36 36 35 33 32 31 33 35 38 40 41 39 36 35 35 37 37 36 35 32 31 32 34 35 35 34 34 35 36 37 37 37 36 36 35 35 35 35 35 34 34 33 32 31 30 29 29 28 28 28 28 28 29 29 30 31 31 31 30 30 30 31 31 31 31 31
32 32 32 31 30 30 31 31 31 31 32 33 34 35 35 35 37 38 38 36 34 31 30 29 31 34 37 39 42 44 42 37 33 32 32 34 35 35 34 32 31 32 33 34 34 34 34 35 35 36 36 36 36 36 36 36 36 35 35 34 33 32 31 30 29 29 29 29 29 30 30 30 31 31 31 32 32 31 30 30 30 31 31 31 31 30
31 32 32 30 30 30 31 32 33 33 34 34 35 36 38 38 38 37 35 32 30 30 32 34 37 40 42 43 43 42 38 33 29 28 29 31 33 34 33 31 31 31 33 34 34 34 34 35 35 36 36 37 37 37 37 36 36 35 34 33 32 31 31 30 30 30 30 31 31 30 30 30 30 29 29 29 28 28 28 28 28 29 29 29 29 30
29 29 29 29 29 29 30 31 32 33 33 34 36 37 38 37 35 33 31 32 34 36 38 39 39 40 41 40 39 37 34 30 27 25 26 28 31 32 32 32 31 32 33 34 34 34 34 35 36 36 37 38 39 38 37 36 35 34 34 33 32 31 31 31 32 32 31 30 29 28 28 27 26 26 26 26 26 26 26 27 27 28 28 29 29 30
26 27 27 28 28 28 28 29 30 31 32 33 35 35 35 35 35 36 38 39 39 38 36 35 35 36 36 34 34 34 33 30 26 25 26 28 30 32 32 32 31 32 34 35 35 34 34 35 36 37 38 39 39 38 37 36 35 35 33 32 32 32 33 33 33 32 30 29 28 27 26 26 25 26 26 26 26 27 27 28 28 28 29 30 30 30
24 25 25 26 27 27 28 29 30 30 31 31 32 33 34 35 36 38 38 37 35 33 31 31 32 32 32 32 32 33 33 30 27 25 25 27 29 32 33 33 32 32 33 35 34 33 33 35 37 38 39 39 38 37 37 36 36 35 34 33 33 34 34 34 33 31 30 29 28 27 27 27 27 27 27 28 28 28 28 29 29 29 30 31 31 31
25 25 26 27 27 28 29 29 30 30 31 31 31 31 32 33 33 34 33 32 31 30 29 29 30 31 32 31 32 33 33 32 29 27 26 26 29 32 33 32 31 31 33 34 34 34 34 35 37 38 39 38 38 38 37 37 36 35 35 35 35 35 35 34 33 32 31 30 30 29 29 29 29 29 29 29 28 29 29 29 29 29 30 31 32 32
27 28 28 28 29 29 30 30 31 32 32 32 31 29 27 27 28 29 29 28 28 27 28 29 29 30 31 30 32 34 35 34 31 28 26 26 27 29 30 30 30 31 32 34 36 36 35 35 35 36 37 37 37 37 37 37 37 37 37 37 37 37 36 35 34 33 32 32 32 31 31 31 30 30 30 29 29 29 29 29 29 29 30 31 32 33
30 30 30 30 31 31 32 32 32 32 30 28 26 23 22 22 23 25 26 26 26 27 27 28 29 30 31 32 33 35 36 34 31 27 24 24 26 29 30 30 30 31 32 34 36 36 34 33 32 32 34 35 36 37 38 39 39 39 40 40 39 38 37 36 35 34 34 33 33 33 32 32 31 31 31 30 30 29 29 28 28 29 30 31 32 33
31 32 33 33 33 33 32 32 30 27 25 24 22 21 20 21 22 24 25 25 25 26 28 29 30 31 31 32 33 33 34 34 30 26 24 25 27 30 32 31 32 32 32 33 33 33 33 32 31 31 32 34 37 38 40 40 40 41 41 41 40 39 38 37 36 36 35 35 34 34 33 33 32 31 31 30 29 29 28 28 28 29 30 32 33 33
33 34 35 34 33 31 29 27 26 24 24 23 23 23 23 23 23 24 24 24 25 26 28 29 30 31 31 31 30 29 31 34 32 29 27 27 30 32 33 33 33 33 33 31 30 30 31 33 33 33 33 35 37 39 39 39 40 40 40 40 41 41 40 38 37 37 36 36 35 35 34 33 32 31 30 29 29 28 28 27 28 29 31 32 33 34
35 35 34 32 30 28 26 25 25 25 25 25 25 25 24 24 24 24 24 25 25 26 27 29 30 31 31 31 30 31 34 37 36 33 31 30 31 33 33 33 33 34 34 32 31 30 29 32 36 37 37 36 37 38 39 39 39 39 39 40 41 42 41 39 38 38 38 37 36 35 34 33 32 31 30 29 28 28 28 27 28 28 30 31 33 34
33 32 30 29 27 26 25 25 25 26 26 27 27 26 25 25 25 25 25 25 25 26 27 29 30 31 32 33 34 36 38 39 38 34 31 31 32 33 34 34 35 36 36 35 33 33 32 35 38 39 39 38 37 37 38 39 39 39 39 39 41 42 42 41 40 39 39 38 37 36 35 34 32 31 30 29 29 28 28 28 28 28 29 31 32 34
30 28 28 27 26 26 26 26 26 27 27 27 27 26 26 26 26 26 26 26 26 26 27 28 29 31 33 34 36 38 39 39 37 34 32 32 33 35 35 36 37 37 36 35 35 34 35 36 37 37 38 39 38 37 38 38 38 38 38 39 41 42 43 43 42 41 40 39 38 37 36 35 34 33 32 31 30 29 29 29 29 29 29 30 32 35
28 27 27 27 27 27 27 27 27 27 27 27 27 27 27 27 27 27 27 27 27 27 28 29 30 31 32 34 36 38 40 39 37 34 34 34 36 37 37 37 38 38 38 37 37 36 35 36 37 37 38 39 39 39 38 37 36 37 39 40 41 42 43 43 42 42 41 40 39 39 38 37 36 35 34 33 32 31 31 31 30 30 30 31 32 33
28 28 27 27 27 27 28 28 28 28 28 28 28 27 27 28 28 28 29 28 28 28 29 29 30 31 32 33 35 38 39 39 37 36 35 36 38 39 40 39 39 38 39 39 40 39 38 38 38 38 38 37 38 38 38 37 38 39 41 42 43 43 43 42 41 40 40 40 40 40 39 39 38 38 36 35 34 33 33 32 32 32 32 32 32 32
28 28 28 27 27 28 28 28 28 29 29 29 29 29 29 29 29 30 30 30 30 30 30 30 30 30 31 32 33 36 37 38 38 37 36 36 37 39 40 41 40 39 39 40 41 41 40 39 39 38 36 35 35 36 38 40 42 43 43 43 43 43 42 41 40 39 39 39 40 40 40 40 39 39 38 37 36 35 35 35 34 34 34 34 34 34
27 28 28 28 28 28 28 28 29 29 29 30 30 31 30 30 30 31 31 31 30 30 30 30 30 31 31 32 33 34 36 37 37 37 36 35 35 36 38 40 40 39 39 40 41 41 40 39 37 37 36 37 37 38 40 41 42 43 44 44 43 42 42 40 39 38 38 39 40 40 41 40 40 40 39 38 38 38 38 38 37 37 37 37 37 37
28 28 29 29 28 28 29 29 29 30 30 31 31 31 31 31 31 31 30 30 30 29 29 30 30 31 32 33 34 35 36 36 37 36 35 34 34 34 35 37 38 38 38 38 39 40 40 40 39 38 39 40 40 41 42 42 43 43 44 45 44 43 41 40 39 39 39 40 40 41 41 41 40 40 40 39 39 39 39 40 40 39 40 41 41 40
28 29 29 29 28 28 28 29 29 30 31 31 31 31 31 31 31 30 30 29 29 29 29 30 31 32 33 34 35 36 36 36 36 36 35 34 33 33 33 34 36 37 37 37 37 38 39 40 40 40 41 41 42 43 44 44 45 45 44 43 42 41 40 40 40 41 41 41 40 40 41 41 40 40 40 40 39 39 40 40 40 41 41 42 42 43
28 29 30 29 29 29 30 30 30 30 30 31 31 32 32 31 31 30 30 30 30 30 30 31 32 33 35 35 36 36 36 36 36 35 35 34 33 33 32 33 34 35 35 36 37 37 38 39 40 41 42 42 43 44 44 45 45 43 42 41 41 42 43 42 42 41 40 40 40 40 40 40 40 40 40 40 40 41 41 41 42 42 42 42 42 41
27 28 29 29 30 30 30 30 30 30 30 30 31 31 31 30 30 30 30 30 30 31 31 32 33 35 37 37 37 37 36 36 36 35 35 34 33 32 32 32 32 33 34 35 36 37 37 38 39 40 41 42 42 43 44 45 45 44 42 41 42 44 44 43 41 40 39 39 40 41 40 40 41 41 41 41 41 42 42 42 42 43 43 42 42 41
28 28 29 29 30 30 31 31 31 31 30 30 30 30 30 29 29 29 29 30 31 32 32 33 34 36 38 39 39 38 38 37 36 36 35 34 33 32 32 32 32 32 33 34 36 37 38 38 38 39 40 41 41 42 42 45 45 44 43 43 42 41 40 41 42 41 40 41 41 41 41 41 41 41 42 42 42 42 43 43 43 43 43 42 41 41
28 29 29 30 30 30 30 30 30 30 30 30 30 30 29 29 29 29 29 30 32 33 34 34 35 36 37 38 39 39 40 39 37 36 35 34 33 32 32 32 33 33 33 34 35 37 38 38 39 39 40 40 41 42 42 43 44 44 43 43 42 40 40 41 42 43 42 42 42 42 41 41 41 41 41 41 41 42 42 43 43 43 42 41 41 40
28 28 29 29 29 29 30 30 30 30 30 30 31 30 29 29 29 29 30 31 33 34 35 35 35 35 34 36 38 39 40 40 39 37 36 35 33 33 33 33 33 33 34 34 35 36 37 38 39 40 40 40 40 41 42 42 43 44 43 43 42 41 41 41 41 41 41 42 42 41 41 40 39 39 39 40 41 42 42 42 42 42 41 41 40 40
28 29 29 30 30 30 30 30 30 30 30 30 30 30 29 29 29 30 31 32 33 34 35 35 34 34 35 36 38 38 39 40 40 39 38 37 35 34 34 34 34 34 35 35 36 36 36 37 39 39 40 40 41 41 41 41 42 42 42 42 41 40 40 40 41 41 41 41 41 40 40 39 38 38 39 41 42 42 41 41 41 40 40 40 40 39
29 29 30 30 30 30 30 30 30 31 31 31 30 29 29 29 30 31 32 33 34 34 35 35 34 35 35 36 37 37 38 39 40 40 39 39 38 37 36 35 35 35 35 36 36 36 37 37 37 38 38 39 40 41 41 40 40 40 40 40 40 40 40 41 41 41 40 39 39 39 39 39 39 39 40 41 41 41 41 41 40 40 39 39 39 39
29 29 30 30 30 31 31 30 30 31 31 32 31 30 29 30 31 32 33 33 34 34 35 35 35 35 36 37 37 37 37 37 38 39 40 40 39 39 38 38 37 37 36 36 36 37 37 37 36 35 35 35 37 38 39 38 38 38 38 38 39 39 40 40 40 39 38 38 38 39 40 39 39 39 40 41 41 41 41 41 40 39 38 38 38 39
28 29 29 30 30 31 31 31 31 31 31 31 32 31 31 31 31 32 33 34 34 34 34 34 35 36 36 37 37 37 36 37 38 39 39 39 39 39 39 39 39 39 39 38 38 38 38 37 35 33 31 30 31 33 35 36 36 36 36 37 37 38 38 38 38 38 38 39 40 40 40 39 39 39 39 40 41 41 41 41 40 39 38 37 38 39
28 28 29 29 30 31 31 31 31 31 31 31 32 33 33 33 33 33 33 33 34 34 34 34 35 35 36 37 38 38 37 37 38 39 39 39 39 39 39 39 39 39 39 40 40 39 37 35 33 31 28 26 25 27 30 33 34 34 35 35 35 36 36 37 38 39 39 40 41 41 41 40 40 39 38 38 39 39 39 40 39 38 38 38 38 39
28 28 28 29 29 30 30 31 31 31 31 31 32 33 34 35 35 34 34 34 34 34 35 35 35 35 35 37 37 37 37 37 38 38 39 39 39 38 39 39 39 39 39 39 38 36 34 32 31 29 27 25 23 23 25 28 31 33 34 34 35 35 36 37 38 40 41 41 41 42 41 41 40 38 37 37 37 37 37 38 39 39 39 39 39 40
Wind_Direction
297 298 299 300 301 301 302 303 304 305 306 308 309 310 311 311 310 309 309 308 308 308 307 306 306 305 304 303 302 302 301 301 301 300 300 300 300 300 299 299 299 299 299 299 298 298 297 297 296 296 295 295 295 295 295 294 294 293 292 291 290 289 289 288 287 287 286 286 285 285 284 284 283 282 282 280 279 278 277 276 275 274 273 272 271 270
299 300 301 302 303 303 303 304 305 305 307 308 309 310 312 311 310 309 309 309 308 307 306 305 304 303 303 302 302 302 301 301 301 300 300 300 300 299 299 299 299 299 299 298 298 297 297 297 297 297 297 297 296 296 296 295 294 293 292 292 291 290 289 289 288 288 287 287 286 286 285 284 284 283 282 282 281 279 278 277 276 275 274 273 272 272
302 302 303 304 305 304 304 305 305 306 307 308 310 311 312 312 310 309 309 309 307 306 305 304 303 303 303 302 302 302 302 302 301 300 300 300 299 299 299 299 299 299 299 298 298 298 298 298 298 298 298 297 297 296 296 295 294 294 293 292 291 290 290 289 289 288 288 287 287 286 285 285 284 283 283 282 281 280 279 278 277 276 275 274 273 272
302 303 304 305 305 304 303 304 305 307 308 310 311 312 312 311 309 308 308 307 306 305 305 304 304 303 303 302 302 302 302 301 301 300 299 299 299 299 298 298 298 298 299 300 300 300 300 300 299 299 298 298 297 297 296 295 295 294 293 292 292 291 291 290 290 289 289 288 287 286 285 285 284 283 282 281 281 280 279 278 277 276 274 273 273 272
302 303 303 304 304 303 303 304 307 309 311 311 311 311 311 309 307 306 305 306 305 305 305 304 303 302 301 301 301 301 301 301 300 299 298 298 298 298 298 298 299 300 302 303 303 302 302 301 300 300 299 299 298 297 296 296 295 295 294 293 293 292 291 291 290 289 288 287 286 285 285 284 283 282 282 281 280 280 279 278 277 276 274 273 272 271
300 301 301 302 302 302 304 306 308 310 311 311 310 310 309 307 306 305 304 305 305 305 304 303 302 301 300 300 300 301 301 300 299 298 297 297 298 299 300 301 303 304 305 304 303 302 302 301 301 300 299 298 298 297 297 296 295 295 294 293 292 291 291 290 289 288 287 286 285 285 284 283 283 282 281 280 280 279 279 278 277 276 275 274 273 272
299 299 300 301 302 303 304 306 308 310 310 309 309 308 307 306 305 305 305 305 305 304 302 302 301 300 300 300 300 300 300 299 299 298 299 300 301 302 304 305 305 305 305 304 303 303 302 302 301 300 299 298 298 297 297 296 295 294 293 292 292 291 291 290 289 288 287 287 286 285 284 283 283 282 281 281 280 279 279 278 278 276 275 275 274 273
299 300 301 303 304 305 305 305 306 308 308 308 307 306 306 306 306 305 305 304 303 303 302 302 301 301 301 301 301 301 300 300 300 301 302 303 304 305 306 306 306 305 304 304 303 302 302 301 300 300 298 298 297 296 296 295 295 294 293 293 293 292 292 291 290 290 289 288 287 286 285 285 284 283 282 282 281 280 279 279 278 277 276 275 274 274
299 301 302 302 303 304 305 305 306 306 307 306 305 305 307 307 306 305 304 303 303 303 303 303 302 302 301 301 301 301 301 300 301 302 304 305 306 306 306 306 306 306 305 305 303 302 302 301 300 299 299 298 297 297 296 296 295 295 295 294 294 294 293 292 292 291 291 289 289 288 287 287 286 285 284 283 283 282 281 280 279 279 277 276 275 275
299 300 302 302 301 301 303 304 306 308 307 305 305 305 306 306 306 306 305 304 303 304 303 303 303 303 302 302 302 302 302 303 303 304 305 306 306 305 305 305 305 305 305 305 304 303 302 302 301 301 300 300 299 299 298 298 298 297 297 297 296 296 295 294 294 293 292 291 290 290 289 288 287 287 286 285 284 283 283 282 281 280 279 278 277 276
300 301 302 302 302 302 302 303 305 307 307 307 306 305 304 303 304 305 305 305 305 305 304 304 303 303 303 303 303 304 304 305 306 307 308 308 308 307 306 305 305 305 305 305 304 304 303 303 303 303 302 302 301 301 301 301 301 301 301 300 299 298 297 296 295 294 294 293 292 291 291 290 289 288 287 286 285 284 283 283 282 281 280 279 278 277
300 301 301 302 303 303 303 302 303 305 307 307 306 305 304 303 303 303 303 304 304 305 304 304 303 303 303 303 304 305 305 306 307 308 309 309 309 308 307 306 305 305 305 305 305 305 305 305 305 304 304 304 303 303 303 303 303 303 303 302 300 299 298 297 297 296 295 294 293 292 291 290 289 287 287 286 285 284 284 283 282 281 280 279 278 277
301 301 301 302 302 301 301 302 303 305 306 305 305 304 304 304 304 303 302 301 302 303 304 304 303 303 303 303 304 304 305 306 307 308 307 308 307 307 306 305 305 305 306 305 305 306 306 306 306 306 306 306 306 306 305 305 305 304 303 302 300 299 299 298 297 296 295 294 293 291 290 289 288 287 286 286 285 284 284 283 282 281 280 280 279 277
301 301 301 300 299 298 299 302 304 304 304 303 302 302 302 303 303 303 302 301 301 302 303 303 303 303 303 304 305 306 305 305 304 304 304 304 304 305 305 304 304 304 305 304 305 306 307 308 308 309 309 309 309 308 308 307 306 304 303 301 300 299 298 297 297 296 295 293 292 291 290 289 288 287 287 286 286 285 284 284 283 282 281 280 279 278
302 302 300 298 297 297 300 302 303 303 302 302 301 301 302 303 303 303 302 301 302 303 304 303 303 303 304 304 306 307 306 305 303 302 302 302 303 304 304 304 303 304 304 304 304 306 309 309 308 309 310 310 310 309 308 306 304 303 302 300 299 298 298 297 297 296 295 294 293 292 291 290 289 288 288 287 286 285 284 284 283 282 281 281 280 279
302 301 298 297 297 299 301 302 302 301 301 301 301 302 302 303 303 302 301 301 302 304 304 304 304 304 304 305 307 308 307 305 303 302 302 302 302 303 303 303 303 303 303 303 304 306 309 309 309 309 309 310 309 308 307 305 304 303 302 301 299 299 298 298 297 297 296 295 294 293 292 291 290 289 288 287 286 285 284 284 283 283 282 282 281 280
300 298 297 298 300 301 302 301 300 299 300 301 301 302 302 301 301 301 300 300 301 302 302 302 302 302 303 305 307 308 308 306 304 303 303 302 302 303 303 303 302 302 303 303 304 306 307 308 309 309 309 309 309 307 306 304 303 302 302 301 300 300 299 298 297 297 296 295 295 294 293 291 290 289 288 287 286 285 285 284 284 283 282 282 281 281
299 299 299 300 300 300 300 300 299 299 300 301 301 302 301 300 300 300 300 299 299 299 299 300 298 297 299 301 304 306 306 305 304 304 303 301 302 303 305 304 302 301 302 303 304 306 306 307 308 308 308 308 306 305 304 303 302 302 302 302 301 300 299 299 298 298 297 296 295 294 293 292 291 290 288 287 286 286 285 284 284 283 283 282 281 281
299 299 299 299 299 299 298 298 298 299 300 300 301 302 301 301 300 299 298 298 298 297 296 296 296 295 295 296 299 302 304 304 304 304 303 301 301 303 305 305 303 302 302 302 304 305 306 307 308 308 308 307 306 305 304 303 303 303 302 303 302 302 302 301 300 299 298 297 296 294 293 292 291 290 289 289 289 288 287 286 285 284 284 283 283 282
297 296 296 297 297 297 296 296 296 297 298 299 300 300 300 300 300 299 298 298 298 296 295 294 294 295 296 297 299 300 302 303 304 303 301 300 301 303 305 305 303 302 301 302 303 305 305 306 307 308 307 307 306 305 305 305 305 304 304 305 305 304 304 303 302 301 299 298 297 296 296 295 294 294 294 294 294 293 291 289 288 287 286 285 285 284
294 294 294 294 295 294 294 294 295 296 297 298 299 299 299 299 299 299 299 298 297 295 295 294 294 296 298 298 298 299 301 302 303 302 301 300 300 302 304 304 302 300 300 300 303 305 305 305 305 306 306 306 306 306 306 305 304 305 307 307 306 306 305 305 304 303 303 303 303 302 302 300 300 299 298 296 295 293 291 289 288 287 286 285 285 284
292 292 293 293 292 292 292 293 295 297 299 300 300 299 299 299 299 299 299 298 297 296 297 297 297 297 297 297 297 298 300 301 302 301 300 298 298 300 304 304 302 300 299 300 302 304 305 304 304 305 305 306 306 306 306 306 306 307 308 308 308 307 307 307 307 307 307 307 306 305 303 301 299 297 295 294 292 291 289 288 287 286 285 285 285 285
291 292 293 294 294 294 295 296 299 301 302 303 302 300 301 301 300 300 301 300 300 300 300 299 297 297 296 296 297 298 301 302 302 301 298 295 294 298 303 303 301 299 297 299 301 303 305 304 304 304 305 307 307 307 308 308 309 310 310 310 310 310 310 310 310 309 308 307 305 303 301 298 296 295 293 292 292 291 290 289 288 287 287 286 286 286
293 293 294 295 296 296 297 298 300 301 302 303 302 302 302 303 303 303 302 300 299 298 298 298 298 297 297 297 299 301 304 305 304 301 296 292 293 296 301 302 301 299 298 300 302 304 304 304 305 305 306 307 309 310 310 312 312 313 314 313 312 312 312 311 310 309 308 306 305 303 302 300 300 299 298 297 297 296 295 294 293 292 291 290 289 289
294 293 294 294 295 296 296 297 298 299 300 300 299 299 299 298 296 294 293 293 295 296 298 299 299 299 299 301 303 305 308 308 306 301 296 293 293 296 300 302 300 299 300 303 305 305 304 304 304 305 307 309 310 312 314 315 316 317 316 315 313 313 312 312 311 310 310 309 308 308 307 307 307 306 305 304 302 301 299 298 296 295 294 293 292 290
295 294 294 294 295 296 297 297 297 297 296 295 294 293 293 293 292 292 293 294 296 298 300 300 300 300 301 303 304 306 309 311 308 302 297 295 294 296 300 303 302 300 301 304 305 304 303 303 304 305 308 311 314 315 317 317 318 317 315 314 313 313 314 314 314 315 314 314 313 312 311 311 310 309 308 306 305 303 301 299 297 296 295 294 293 291
303 303 303 303 302 301 300 299 297 295 293 291 290 291 292 293 294 295 296 296 298 300 301 300 299 300 302 302 303 305 309 310 307 303 300 297 294 295 299 303 303 302 302 303 303 302 302 302 303 306 309 313 316 317 317 317 316 315 314 314 315 316 317 318 318 318 318 317 315 314 313 312 311 310 308 307 305 303 301 299 298 296 295 294 292 290
312 311 310 307 305 303 300 298 295 294 293 293 294 295 296 297 296 296 296 298 301 302 300 297 296 297 299 300 302 305 308 308 307 307 305 300 295 293 298 302 303 302 301 302 303 303 303 302 304 307 310 313 314 314 315 314 314 314 315 317 319 320 320 320 320 319 318 317 316 315 313 312 310 309 308 306 305 303 301 300 299 297 296 293 291 289
314 312 308 305 303 300 299 297 297 298 300 302 304 305 304 301 298 296 298 302 304 302 297 296 295 295 296 298 301 304 306 306 308 310 308 302 296 295 299 302 302 303 303 304 305 305 304 303 304 306 308 310 311 312 313 314 315 317 319 321 322 322 321 321 320 319 318 317 316 314 313 311 310 308 307 305 304 303 302 301 301 299 298 295 293 292
310 308 305 303 302 302 302 303 305 307 310 313 315 314 311 307 302 301 303 305 303 299 296 295 295 295 296 298 300 301 302 305 309 310 307 302 298 298 301 302 303 304 306 306 306 306 304 304 305 305 306 308 309 311 313 315 317 318 320 321 322 322 322 321 320 319 318 316 315 314 312 311 309 308 307 306 305 304 303 304 303 301 299 297 295 294
304 303 303 304 305 307 308 310 312 314 317 319 319 318 315 312 308 306 305 303 300 297 294 294 294 294 294 295 295 295 296 302 307 309 305 302 299 300 302 303 304 305 306 305 304 304 304 305 306 306 307 308 309 310 312 314 315 317 318 319 320 321 321 320 318 317 316 316 315 314 313 312 311 310 309 308 307 306 306 306 305 303 300 298 296 295
301 303 304 307 310 313 314 316 317 318 319 320 320 319 317 314 311 307 303 300 298 296 294 293 293 293 293 292 290 289 291 299 305 308 305 301 299 300 301 302 302 303 305 303 300 299 299 301 304 306 308 307 308 309 310 312 313 314 316 317 317 319 320 319 317 316 316 316 316 315 315 315 314 314 313 311 310 309 309 308 307 305 301 299 297 295
305 308 311 314 316 318 319 318 318 319 319 319 319 318 316 313 310 307 303 301 298 296 294 293 292 292 292 291 290 289 291 297 304 307 305 301 298 298 300 301 301 302 303 303 300 297 295 297 300 304 306 306 306 307 308 310 312 313 314 315 315 317 318 318 317 316 316 317 318 318 318 318 318 317 316 314 313 312 311 311 309 307 303 299 296 295
312 314 317 320 321 322 322 321 320 320 319 318 317 315 314 312 309 307 305 303 300 298 295 293 292 292 292 292 291 292 294 299 305 308 305 300 297 298 299 300 300 301 301 301 300 299 297 297 298 301 303 304 305 305 306 308 310 312 313 313 313 314 316 318 318 317 318 319 319 320 321 321 321 320 318 317 316 315 314 313 311 309 305 300 296 294
317 319 320 321 322 322 322 322 321 320 318 316 314 313 312 310 309 307 306 304 303 300 298 296 294 293 292 291 291 292 295 302 308 310 307 302 299 299 299 299 299 300 300 299 299 298 297 297 298 299 301 302 303 304 305 307 309 311 312 312 312 313 315 317 317 318 319 319 320 320 321 321 321 320 319 318 318 317 316 314 312 310 306 302 298 295
318 319 319 320 320 320 320 319 319 319 318 316 314 312 311 310 309 308 307 306 304 302 301 300 298 297 295 292 291 292 297 304 310 312 310 306 303 300 298 298 299 300 298 297 297 297 297 297 298 299 300 300 300 303 305 308 309 310 311 312 313 314 315 316 316 316 317 317 318 319 320 320 320 319 318 318 318 317 316 313 312 311 309 307 304 301
318 318 318 319 319 318 318 317 318 318 316 316 315 314 312 311 310 309 309 308 307 306 305 304 304 303 302 300 298 298 301 307 312 314 314 311 307 302 298 298 299 299 297 296 296 297 297 296 297 298 298 297 297 300 304 307 309 310 310 311 312 312 313 315 316 315 314 314 315 316 317 317 317 317 317 318 318 317 316 316 314 313 312 310 308 305
317 317 317 318 318 317 317 316 316 316 316 314 313 313 313 312 311 311 311 311 311 310 309 309 309 310 309 308 307 307 308 310 312 314 315 314 310 305 300 299 300 300 300 298 297 297 296 294 294 295 296 296 297 298 302 305 306 307 309 311 311 311 311 313 314 313 312 311 312 313 314 315 315 315 316 317 317 317 316 316 316 314 313 311 309 307
317 317 317 316 317 317 316 315 315 315 315 314 314 314 314 314 314 314 314 314 314 314 313 313 314 314 314 314 314 313 313 313 314 315 315 314 312 308 303 300 300 301 302 302 300 298 295 293 292 292 294 296 297 300 302 304 304 305 307 309 310 310 311 311 311 311 310 310 310 311 313 314 315 315 314 315 315 314 312 313 313 313 312 311 310 310
317 316 316 315 316 317 315 315 315 315 315 316 316 316 316 316 316 317 318 319 318 318 318 318 317 317 317 317 316 316 316 316 316 317 316 316 315 312 308 304 302 303 304 303 302 299 297 294 293 293 294 294 296 298 300 302 304 305 305 305 305 306 309 310 310 310 310 310 310 311 311 313 313 312 312 312 311 310 309 309 309 310 310 309 308 308
316 315 315 316 318 319 317 316 316 316 316 316 316 316 316 318 319 320 322 322 322 322 321 320 320 319 319 319 318 318 318 318 319 319 318 318 317 315 312 308 306 305 304 303 302 300 298 296 294 294 295 295 296 297 299 300 302 303 302 301 300 302 306 308 309 309 310 310 310 310 310 310 310 310 310 310 310 309 309 308 307 307 308 308 307 306
315 315 316 318 319 319 319 319 319 318 317 316 315 316 317 319 320 321 321 321 322 322 323 322 320 319 319 321 322 322 322 322 321 321 320 320 319 317 314 311 309 307 305 303 301 300 300 298 296 295 296 296 296 296 297 299 302 302 301 299 300 303 305 307 309 310 309 308 309 309 309 309 309 309 310 309 309 309 308 307 306 305 306 306 307 306
318 318 318 319 319 319 319 319 319 319 318 316 316 317 320 321 321 320 320 319 319 321 322 322 320 319 317 318 321 324 325 325 325 323 322 321 320 318 316 314 312 310 307 303 301 300 301 300 298 297 298 298 297 295 295 297 300 301 301 301 301 300 300 303 307 310 309 308 309 309 309 309 309 310 309 308 307 306 306 305 305 305 305 305 306 306
321 321 321 321 320 320 319 318 318 318 318 317 317 319 322 323 323 322 319 318 319 321 322 322 321 318 315 315 317 320 324 327 328 326 325 324 322 320 318 316 314 313 310 305 302 301 302 301 300 300 301 300 297 295 294 295 296 298 300 302 301 298 296 299 304 307 307 308 309 309 309 309 309 308 307 305 304 303 303 304 304 305 307 307 307 306
320 320 320 320 320 319 318 317 318 319 319 319 320 322 323 325 325 323 319 318 319 320 321 321 319 315 311 312 315 318 321 325 327 328 328 327 326 323 321 318 317 315 313 309 306 304 301 299 300 302 304 302 298 295 293 293 294 296 299 301 301 300 299 301 303 304 304 306 307 308 308 309 308 305 303 302 302 302 303 303 304 305 307 308 308 307
319 319 319 320 320 319 318 319 320 320 320 320 321 322 324 325 325 323 321 319 319 319 320 320 317 313 310 311 314 316 318 320 324 327 328 329 329 328 325 323 321 318 316 313 311 308 305 302 301 302 303 301 298 296 295 294 294 295 297 300 301 301 301 302 303 303 304 304 305 306 307 307 306 303 301 301 301 302 303 304 304 305 307 308 308 307
320 319 320 320 320 320 320 321 322 322 321 320 321 323 324 325 324 323 322 321 320 319 319 319 317 313 312 312 313 314 314 316 319 322 324 326 328 328 327 326 325 323 319 316 313 311 308 307 305 303 300 296 294 295 297 298 297 296 296 299 300 300 300 301 303 304 305 304 304 304 306 305 304 302 302 302 303 304 305 305 306 306 306 306 306 306
321 320 320 321 321 321 322 322 322 322 321 322 323 324 325 325 324 323 322 322 322 320 319 318 317 315 314 314 315 315 314 313 314 317 319 321 324 325 325 325 325 324 322 319 316 314 311 310 308 305 300 294 291 292 295 298 299 298 298 299 299 299 298 300 302 304 304 303 303 304 305 304 303 303 304 304 304 304 305 306 307 307 306 305 305 305
323 322 321 322 322 322 323 323 322 321 321 322 324 325 326 327 326 325 323 323 322 321 319 318 316 315 314 314 316 317 315 314 315 316 318 319 320 321 322 322 323 323 322 321 319 317 315 312 310 306 302 296 292 291 294 297 299 299 299 299 298 298 298 299 301 302 303 303 304 306 307 306 306 306 306 304 303 303 304 305 306 306 305 304 304 306
326 325 324 323 323 323 323 323 323 322 322 323 325 326 327 328 329 328 327 325 323 321 320 318 317 315 314 314 316 317 316 316 316 316 317 319 319 319 319 320 321 320 319 319 318 317 314 312 310 308 305 301 296 293 293 295 297 298 298 298 297 298 298 299 301 303 305 305 307 308 309 309 310 310 308 304 302 301 302 303 304 304 304 305 306 308
327 327 326 326 325 325 325 325 325 324 325 326 327 328 329 329 330 330 329 327 325 323 322 320 318 316 314 314 316 317 316 316 315 316 317 319 320 319 319 320 320 319 316 315 314 313 311 310 308 307 307 306 302 297 294 295 296 297 297 297 299 300 300 301 303 305 307 308 309 310 311 311 311 310 308 304 302 300 300 301 302 303 304 306 308 310
Height
1450 1448 1447 1447 1445 1443 1441 1441 1440 1438 1436 1435 1434 1433 1432 1430 1429 1428 1427 1426 1425 1423 1422 1421 1420 1419 1417 1416 1415 1414 1413 1412 1411 1409 1408 1407 1406 1405 1404 1403 1402 1401 1400 1398 1397 1396 1395 1393 1392 1391 1390 1389 1388 1387 1386 1385 1384 1383 1382 1381 1381 1380 1379 1378 1378 1377 1377 1377 1376 1375 1375 1374 1374 1373 1373 1372 1372 1372 1372 1371 1371 1371 1370 1370 1370 1370
1448 1447 1446 1445 1443 1442 1439 1439 1438 1437 1435 1433 1432 1431 1430 1428 1427 1426 1425 1424 1423 1422 1421 1419 1418 1417 1416 1414 1413 1412 1411 1410 1409 1407 1406 1405 1404 1403 1402 1401 1400 1398 1397 1396 1394 1393 1392 1391 1389 1388 1387 1386 1385 1384 1383 1382 1381 1380 1379 1378 1377 1377 1376 1375 1375 1374 1374 1373 1373 1372 1372 1371 1370 1370 1369 1369 1369 1368 1368 1368 1367 1367 1367 1367 1367 1367
1446 1445 1443 1443 1442 1440 1438 1437 1436 1436 1434 1432 1430 1429 1428 1427 1425 1424 1423 1422 1421 1420 1419 1418 1416 1415 1413 1412 1411 1410 1408 1407 1407 1405 1404 1403 1402 1401 1400 1399 1397 1396 1394 1393 1392 1390 1389 1388 1387 1386 1384 1383 1382 1381 1380 1379 1378 1377 1377 1376 1375 1374 1373 1372 1372 1371 1371 1370 1369 1369 1368 1368 1367 1367 1366 1366 1365 1365 1365 1364 1364 1364 1364 1363 1363 1363
1445 1443 1442 1441 1440 1439 1437 1436 1434 1433 1432 1431 1429 1427 1427 1425 1424 1422 1421 1420 1419 1418 1417 1416 1415 1413 1411 1410 1409 1407 1407 1406 1404 1403 1402 1401 1400 1399 1397 1396 1395 1393 1392 1390 1389 1387 1386 1385 1384 1383 1382 1381 1380 1379 1378 1377 1376 1375 1374 1373 1372 1371 1370 1370 1369 1368 1368 1367 1366 1366 1365 1364 1364 1363 1363 1362 1362 1362 1361 1361 1360 1360 1360 1360 1359 1359
1444 1443 1441 1440 1438 1437 1435 1434 1433 1432 1430 1429 1427 1426 1425 1424 1422 1421 1420 1418 1417 1416 1415 1414 1412 1411 1410 1408 1407 1406 1405 1403 1402 1401 1400 1399 1397 1396 1395 1393 1392 1390 1389 1387 1386 1385 1384 1382 1382 1380 1379 1378 1377 1376 1375 1374 1373 1372 1371 1370 1369 1368 1367 1367 1366 1365 1364 1364 1363 1362 1362 1361 1360 1360 1359 1359 1358 1358 1357 1357 1357 1356 1356 1356 1356 1356
1443 1442 1440 1439 1437 1435 1433 1432 1431 1430 1428 1427 1426 1425 1424 1422 1421 1419 1418 1417 1416 1414 1413 1412 1411 1409 1408 1407 1405 1404 1402 1401 1400 1399 1397 1396 1395 1393 1392 1390 1389 1387 1386 1385 1383 1382 1381 1380 1379 1378 1377 1376 1375 1374 1373 1372 1371 1370 1368 1367 1367 1366 1365 1364 1363 1362 1361 1360 1360 1359 1358 1358 1357 1357 1356 1355 1355 1354 1354 1353 1353 1353 1352 1352 1352 1352
1441 1440 1439 1437 1435 1434 1433 1432 1430 1429 1427 1426 1424 1423 1422 1421 1419 1418 1416 1415 1414 1413 1412 1410 1409 1407 1406 1404 1403 1402 1401 1399 1397 1396 1394 1393 1392 1390 1389 1387 1386 1385 1383 1382 1381 1380 1379 1378 1377 1375 1374 1373 1372 1371 1370 1369 1368 1367 1366 1365 1363 1362 1362 1361 1360 1359 1358 1357 1356 1356 1355 1354 1354 1353 1352 1352 1352 1351 1350 1350 1350 1349 1349 1349 1348 1348
1439 1437 1437 1437 1434 1432 1431 1431 1430 1429 1427 1425 1423 1421 1420 1418 1417 1417 1415 1414 1413 1411 1410 1408 1407 1405 1404 1402 1401 1400 1398 1397 1395 1393 1391 1390 1389 1387 1386 1385 1383 1382 1381 1380 1378 1377 1376 1375 1374 1373 1372 1371 1369 1368 1367 1366 1365 1364 1362 1362 1360 1359 1358 1357 1356 1355 1354 1354 1353 1352 1352 1351 1350 1350 1349 1349 1348 1348 1347 1347 1346 1346 1346 1345 1345 1345
1438 1436 1435 1435 1434 1432 1430 1428 1428 1428 1427 1425 1422 1421 1418 1417 1415 1414 1414 1412 1411 1409 1408 1406 1404 1402 1401 1400 1399 1397 1396 1394 1393 1391 1389 1387 1386 1385 1383 1382 1381 1379 1378 1377 1376 1375 1374 1372 1371 1370 1369 1367 1367 1365 1364 1363 1362 1361 1359 1358 1357 1356 1355 1354 1353 1352 1352 1351 1350 1349 1349 1348 1347 1347 1346 1346 1345 1345 1344 1344 1343 1343 1342 1342 1342 1341
1438 1437 1434 1433 1433 1432 1430 1427 1425 1425 1425 1423 1422 1420 1419 1416 1414 1412 1411 1410 1409 1408 1406 1405 1403 1401 1399 1397 1397 1395 1394 1392 1390 1389 1387 1385 1384 1382 1381 1380 1378 1377 1376 1374 1373 1372 1371 1370 1368 1367 1366 1364 1363 1362 1361 1360 1359 1357 1356 1355 1354 1353 1352 1351 1350 1349 1349 1348 1347 1347 1346 1345 1345 1344 1343 1343 1342 1342 1341 1341 1340 1340 1339 1339 1338 1338
1436 1435 1434 1432 1431 1430 1429 1427 1424 1423 1423 1422 1420 1419 1419 1417 1415 1411 1408 1407 1406 1405 1404 1403 1401 1399 1397 1395 1394 1393 1392 1389 1387 1386 1384 1383 1382 1380 1379 1378 1376 1375 1373 1372 1371 1369 1368 1367 1365 1364 1362 1362 1360 1359 1358 1357 1356 1354 1353 1352 1351 1350 1349 1348 1348 1347 1346 1345 1345 1344 1343 1343 1342 1342 1341 1340 1340 1339 1338 1338 1337 1337 1336 1336 1335 1335
1435 1433 1432 1430 1429 1427 1426 1425 1423 1422 1422 1421 1419 1417 1416 1416 1415 1412 1409 1406 1404 1403 1402 1400 1399 1398 1396 1393 1392 1390 1389 1387 1385 1383 1381 1380 1379 1378 1377 1375 1374 1372 1371 1369 1367 1366 1364 1363 1362 1361 1360 1358 1357 1356 1355 1354 1352 1352 1350 1349 1348 1347 1347 1346 1345 1344 1344 1343 1342 1342 1341 1340 1339 1339 1338 1337 1337 1336 1336 1335 1334 1334 1333 1332 1332 1332
1434 1432 1431 1429 1427 1426 1425 1423 1422 1421 1421 1420 1418 1416 1414 1413 1412 1411 1408 1406 1403 1402 1400 1398 1397 1395 1394 1392 1391 1388 1387 1385 1383 1382 1380 1378 1377 1376 1375 1373 1372 1370 1368 1366 1364 1362 1362 1360 1359 1357 1357 1355 1354 1353 1352 1351 1350 1349 1347 1347 1346 1345 1344 1344 1343 1342 1341 1341 1340 1339 1338 1337 1337 1336 1335 1335 1334 1333 1332 1332 1331 1331 1330 1329 1329 1328
1432 1431 1430 1428 1426 1425 1424 1423 1422 1420 1419 1418 1417 1415 1413 1412 1411 1409 1407 1404 1402 1401 1399 1397 1394 1392 1391 1390 1389 1387 1386 1383 1381 1380 1378 1377 1375 1374 1373 1372 1369 1368 1366 1364 1362 1360 1359 1358 1356 1354 1353 1352 1351 1350 1349 1348 1347 1346 1345 1344 1344 1343 1342 1342 1341 1340 1339 1338 1337 1336 1336 1335 1334 1333 1332 1332 1331 1330 1330 1329 1328 1327 1327 1326 1326 1325
1431 1430 1428 1426 1425 1424 1423 1422 1420 1419 1417 1417 1415 1414 1412 1410 1409 1407 1406 1403 1401 1399 1397 1395 1392 1390 1389 1388 1387 1386 1385 1382 1380 1378 1376 1374 1373 1373 1372 1370 1367 1365 1364 1362 1359 1357 1356 1355 1354 1352 1350 1349 1348 1347 1347 1346 1345 1344 1343 1342 1342 1341 1340 1339 1338 1337 1336 1335 1334 1334 1333 1332 1331 1330 1330 1329 1328 1327 1327 1326 1325 1324 1324 1323 1322 1322
1430 1428 1426 1424 1423 1422 1422 1421 1419 1417 1416 1415 1413 1412 1411 1409 1407 1406 1404 1402 1400 1398 1396 1393 1390 1387 1385 1385 1386 1385 1384 1382 1379 1377 1375 1372 1371 1370 1370 1368 1366 1363 1361 1359 1357 1355 1354 1353 1351 1350 1348 1347 1346 1345 1344 1344 1343 1342 1341 1340 1339 1338 1337 1337 1335 1334 1333 1332 1332 1331 1330 1329 1328 1327 1327 1326 1325 1324 1323 1323 1322 1321 1321 1320 1319 1318
1428 1427 1425 1423 1422 1421 1420 1419 1418 1416 1414 1413 1412 1411 1409 1408 1406 1404 1403 1401 1399 1397 1395 1392 1390 1386 1382 1381 1382 1383 1383 1381 1378 1376 1373 1370 1368 1367 1368 1367 1364 1361 1358 1357 1355 1353 1352 1351 1349 1347 1346 1345 1344 1343 1342 1342 1341 1340 1339 1338 1337 1336 1335 1334 1333 1332 1331 1330 1329 1328 1327 1326 1325 1324 1323 1323 1322 1321 1320 1320 1319 1318 1317 1317 1316 1315
1427 1426 1424 1422 1421 1419 1418 1417 1416 1414 1413 1412 1410 1409 1408 1406 1405 1403 1401 1400 1398 1396 1393 1391 1389 1386 1383 1380 1379 1380 1381 1380 1377 1374 1371 1368 1365 1364 1365 1364 1362 1359 1357 1354 1352 1351 1350 1348 1347 1345 1344 1343 1342 1341 1340 1339 1338 1337 1336 1335 1334 1333 1332 1331 1330 1329 1328 1327 1326 1325 1324 1323 1322 1321 1320 1320 1319 1318 1317 1317 1316 1315 1314 1313 1313 1312
1425 1424 1423 1421 1420 1418 1417 1416 1414 1413 1412 1411 1409 1407 1406 1404 1403 1401 1399 1398 1396 1393 1391 1389 1387 1385 1382 1379 1377 1377 1379 1378 1375 1372 1369 1366 1363 1361 1362 1361 1360 1357 1355 1352 1351 1349 1348 1347 1345 1343 1342 1341 1340 1339 1338 1337 1336 1335 1334 1333 1332 1331 1329 1328 1327 1326 1325 1324 1323 1322 1321 1320 1319 1318 1317 1317 1316 1315 1314 1313 1312 1312 1311 1310 1310 1309
1423 1422 1422 1420 1418 1416 1415 1414 1413 1412 1411 1409 1408 1406 1404 1402 1401 1399 1397 1395 1393 1391 1389 1387 1385 1383 1381 1379 1376 1375 1376 1376 1374 1371 1368 1364 1361 1359 1359 1359 1358 1355 1352 1350 1349 1348 1347 1345 1343 1341 1340 1339 1338 1337 1336 1335 1334 1332 1332 1330 1329 1327 1327 1325 1324 1323 1322 1321 1320 1319 1318 1317 1316 1315 1314 1313 1312 1312 1311 1310 1310 1309 1308 1307 1307 1306
1422 1420 1420 1419 1417 1415 1413 1412 1411 1410 1409 1408 1407 1405 1402 1401 1398 1397 1395 1393 1391 1389 1387 1386 1383 1382 1380 1377 1375 1373 1373 1373 1372 1369 1366 1362 1359 1357 1357 1357 1356 1353 1350 1348 1347 1346 1345 1343 1341 1339 1338 1337 1335 1334 1333 1332 1331 1330 1329 1327 1326 1325 1324 1322 1321 1320 1319 1318 1317 1316 1315 1314 1313 1312 1312 1311 1310 1309 1308 1307 1307 1306 1305 1305 1304 1303
1420 1418 1417 1417 1416 1414 1412 1410 1409 1408 1407 1406 1405 1403 1401 1399 1396 1394 1392 1391 1389 1388 1387 1385 1382 1380 1378 1376 1373 1371 1372 1372 1371 1368 1365 1361 1357 1355 1355 1355 1354 1352 1348 1346 1345 1344 1343 1341 1339 1337 1336 1335 1333 1332 1331 1330 1328 1327 1326 1325 1323 1322 1321 1319 1318 1317 1316 1315 1314 1313 1312 1312 1311 1310 1309 1308 1307 1306 1306 1305 1304 1303 1302 1302 1301 1300
1419 1417 1415 1414 1413 1412 1410 1408 1407 1406 1405 1404 1403 1401 1398 1397 1395 1392 1391 1390 1389 1387 1385 1382 1380 1378 1376 1374 1372 1370 1369 1369 1369 1367 1365 1361 1356 1353 1353 1353 1352 1350 1347 1345 1343 1342 1341 1339 1337 1335 1333 1332 1331 1330 1328 1327 1326 1324 1323 1322 1320 1319 1318 1317 1316 1315 1314 1313 1312 1311 1310 1309 1308 1307 1306 1305 1304 1303 1302 1302 1301 1300 1299 1298 1297 1297
1417 1415 1413 1412 1411 1410 1409 1407 1406 1405 1403 1402 1401 1399 1398 1397 1395 1393 1392 1389 1387 1385 1382 1380 1377 1375 1373 1371 1370 1368 1367 1367 1367 1366 1364 1360 1356 1353 1352 1352 1350 1348 1345 1343 1342 1340 1338 1336 1334 1333 1331 1330 1328 1327 1326 1324 1323 1322 1320 1319 1317 1316 1315 1314 1313 1312 1311 1310 1309 1308 1307 1306 1305 1304 1303 1302 1301 1300 1299 1298 1297 1297 1296 1295 1294 1293
1415 1413 1412 1411 1410 1409 1408 1407 1405 1404 1403 1402 1401 1399 1398 1396 1393 1391 1388 1386 1385 1383 1381 1379 1376 1373 1371 1369 1367 1366 1364 1365 1365 1364 1362 1359 1355 1352 1351 1350 1349 1346 1342 1340 1339 1338 1337 1334 1332 1330 1329 1327 1326 1324 1323 1322 1320 1319 1317 1316 1315 1314 1313 1312 1311 1310 1309 1307 1306 1305 1304 1303 1302 1301 1300 1299 1298 1297 1296 1296 1295 1294 1293 1292 1291 1290
1413 1412 1411 1409 1408 1407 1406 1405 1404 1402 1402 1401 1399 1397 1395 1392 1390 1387 1386 1384 1383 1382 1380 1377 1375 1372 1370 1368 1366 1364 1362 1362 1363 1362 1361 1358 1354 1350 1348 1348 1347 1345 1341 1338 1337 1337 1335 1332 1330 1327 1326 1324 1322 1322 1320 1319 1317 1316 1315 1314 1313 1312 1311 1310 1308 1307 1306 1304 1303 1302 1301 1300 1299 1298 1297 1296 1295 1294 1293 1292 1292 1291 1290 1289 1288 1287
1411 1409 1408 1407 1406 1405 1403 1402 1401 1400 1399 1398 1396 1395 1392 1390 1388 1386 1384 1382 1381 1380 1378 1376 1373 1371 1368 1367 1365 1362 1361 1360 1360 1360 1359 1357 1353 1349 1347 1346 1345 1343 1340 1337 1336 1335 1333 1331 1327 1325 1323 1321 1320 1318 1317 1316 1315 1314 1313 1312 1311 1309 1308 1307 1305 1304 1302 1301 1300 1299 1298 1297 1296 1295 1294 1293 1292 1292 1291 1290 1289 1288 1287 1286 1285 1284
1407 1407 1405 1404 1403 1402 1401 1400 1398 1397 1395 1394 1393 1392 1391 1389 1387 1384 1382 1381 1380 1379 1377 1375 1373 1370 1368 1366 1363 1361 1359 1358 1357 1357 1357 1355 1352 1348 1346 1345 1344 1342 1339 1336 1333 1331 1330 1328 1326 1323 1321 1319 1318 1317 1315 1314 1313 1312 1310 1309 1307 1306 1305 1303 1302 1301 1300 1298 1297 1296 1295 1294 1293 1292 1292 1291 1290 1289 1288 1287 1286 1285 1284 1283 1282 1280
1405 1404 1403 1402 1401 1400 1398 1396 1395 1393 1392 1391 1390 1389 1388 1387 1385 1383 1381 1380 1379 1377 1376 1374 1372 1370 1367 1365 1362 1359 1357 1356 1356 1356 1356 1354 1351 1347 1346 1345 1343 1341 1339 1335 1330 1327 1326 1326 1324 1322 1320 1318 1316 1315 1313 1312 1310 1308 1307 1305 1304 1303 1302 1301 1299 1298 1297 1296 1294 1293 1292 1291 1290 1289 1288 1287 1287 1286 1285 1284 1283 1282 1281 1279 1277 1276
1403 1402 1400 1399 1398 1396 1395 1393 1392 1390 1389 1388 1387 1387 1386 1384 1383 1381 1379 1378 1377 1376 1374 1372 1370 1369 1367 1364 1362 1358 1355 1353 1354 1355 1355 1353 1349 1346 1344 1343 1342 1340 1338 1335 1330 1325 1322 1321 1322 1321 1319 1317 1315 1312 1311 1309 1307 1306 1304 1302 1301 1299 1298 1297 1297 1295 1294 1293 1292 1291 1289 1288 1287 1286 1285 1284 1283 1282 1282 1281 1280 1279 1277 1276 1274 1272
1401 1399 1397 1396 1394 1393 1392 1390 1389 1388 1387 1386 1385 1384 1383 1382 1381 1379 1378 1377 1376 1375 1373 1371 1369 1368 1366 1365 1362 1358 1354 1351 1352 1354 1353 1351 1348 1345 1343 1342 1340 1338 1337 1336 1332 1326 1320 1316 1316 1317 1317 1315 1312 1310 1308 1307 1305 1303 1302 1300 1298 1296 1295 1295 1294 1292 1291 1290 1289 1287 1286 1285 1284 1283 1282 1281 1280 1279 1278 1277 1277 1276 1274 1272 1271 1269
1398 1397 1395 1393 1392 1391 1389 1388 1387 1386 1385 1384 1383 1382 1381 1380 1379 1378 1377 1376 1375 1374 1372 1370 1368 1367 1365 1364 1362 1358 1353 1350 1349 1351 1352 1350 1346 1343 1342 1341 1338 1336 1336 1335 1334 1330 1324 1317 1312 1312 1313 1312 1310 1308 1306 1305 1303 1302 1300 1298 1296 1294 1292 1292 1291 1290 1288 1287 1285 1284 1283 1282 1281 1279 1278 1277 1276 1276 1275 1274 1273 1272 1271 1269 1267 1266
1397 1395 1393 1392 1390 1389 1388 1387 1385 1384 1383 1382 1381 1380 1379 1378 1377 1376 1375 1374 1373 1372 1371 1369 1367 1365 1363 1362 1360 1357 1352 1349 1348 1349 1350 1349 1346 1342 1341 1339 1337 1335 1333 1332 1332 1330 1326 1320 1314 1310 1309 1309 1308 1307 1304 1303 1302 1300 1298 1297 1294 1292 1290 1289 1288 1287 1285 1283 1282 1280 1279 1278 1277 1276 1275 1274 1273 1272 1271 1271 1270 1269 1268 1266 1265 1263
1395 1393 1392 1390 1389 1387 1386 1385 1384 1383 1382 1380 1379 1378 1377 1376 1375 1374 1373 1372 1372 1371 1369 1368 1366 1364 1362 1360 1357 1354 1350 1347 1347 1349 1349 1348 1345 1342 1339 1337 1336 1333 1331 1329 1328 1326 1324 1320 1316 1312 1308 1305 1304 1304 1303 1301 1299 1298 1297 1295 1292 1290 1288 1286 1285 1283 1282 1280 1278 1277 1276 1274 1273 1272 1271 1270 1269 1268 1267 1267 1266 1266 1265 1264 1262 1261
1393 1391 1390 1389 1387 1386 1385 1383 1382 1381 1380 1379 1378 1377 1376 1375 1373 1372 1371 1370 1369 1368 1367 1366 1365 1363 1361 1359 1356 1352 1348 1346 1346 1347 1347 1346 1343 1341 1338 1336 1334 1332 1330 1327 1325 1324 1321 1318 1316 1313 1309 1304 1301 1300 1300 1299 1298 1296 1294 1292 1291 1288 1286 1284 1282 1281 1279 1277 1276 1274 1272 1271 1270 1269 1268 1267 1266 1265 1264 1263 1262 1262 1261 1261 1260 1258
1392 1390 1389 1388 1387 1385 1383 1382 1381 1380 1379 1377 1376 1375 1374 1373 1372 1370 1369 1368 1367 1366 1365 1364 1362 1361 1359 1357 1355 1351 1347 1344 1343 1344 1344 1343 1342 1340 1337 1334 1332 1331 1329 1326 1324 1322 1319 1316 1313 1311 1309 1305 1300 1297 1296 1296 1296 1294 1292 1290 1288 1286 1284 1282 1281 1279 1277 1275 1273 1271 1270 1269 1267 1266 1265 1264 1263 1262 1261 1260 1259 1258 1257 1256 1256 1255
1391 1389 1388 1387 1386 1384 1382 1381 1380 1378 1377 1376 1375 1373 1372 1371 1370 1368 1367 1366 1364 1363 1362 1361 1359 1358 1356 1355 1352 1349 1346 1343 1342 1341 1341 1341 1340 1338 1335 1332 1330 1329 1328 1326 1322 1320 1318 1314 1311 1309 1307 1305 1301 1297 1294 1292 1292 1290 1288 1287 1285 1283 1282 1280 1279 1277 1275 1273 1271 1269 1268 1266 1265 1264 1262 1261 1260 1258 1257 1256 1255 1254 1253 1252 1251 1250
1390 1388 1387 1386 1385 1383 1382 1380 1378 1377 1376 1375 1373 1372 1370 1369 1368 1366 1365 1363 1362 1361 1359 1358 1356 1354 1353 1351 1349 1347 1344 1342 1340 1339 1338 1338 1337 1336 1334 1331 1328 1327 1326 1324 1322 1319 1317 1314 1311 1307 1304 1302 1300 1297 1294 1292 1289 1287 1285 1283 1282 1281 1279 1277 1276 1275 1273 1271 1269 1267 1266 1265 1263 1261 1259 1257 1256 1255 1253 1251 1250 1250 1249 1248 1247 1246
1389 1387 1386 1385 1383 1382 1381 1379 1377 1376 1375 1373 1372 1370 1368 1367 1366 1364 1362 1361 1360 1358 1357 1355 1354 1352 1350 1348 1346 1344 1342 1340 1339 1337 1336 1336 1335 1334 1332 1329 1327 1324 1323 1322 1321 1318 1316 1313 1310 1307 1303 1300 1297 1294 1292 1291 1288 1285 1282 1280 1278 1277 1276 1276 1274 1273 1271 1269 1267 1265 1263 1262 1260 1258 1256 1255 1253 1252 1250 1248 1247 1246 1246 1244 1242 1241
1388 1387 1385 1383 1382 1381 1380 1378 1376 1375 1373 1371 1370 1368 1367 1365 1363 1362 1360 1359 1357 1356 1355 1353 1352 1349 1347 1345 1343 1342 1340 1338 1337 1335 1334 1333 1332 1331 1330 1328 1325 1322 1321 1319 1318 1316 1314 1312 1308 1306 1303 1300 1296 1293 1290 1288 1286 1284 1282 1279 1276 1274 1273 1273 1272 1270 1268 1267 1265 1263 1261 1259 1257 1256 1254 1252 1251 1250 1248 1246 1245 1243 1242 1241 1240 1237
1387 1385 1384 1382 1381 1379 1378 1377 1375 1373 1372 1370 1368 1366 1365 1363 1362 1360 1358 1357 1355 1354 1352 1351 1349 1347 1345 1343 1341 1339 1338 1336 1334 1333 1332 1331 1330 1328 1327 1325 1323 1321 1319 1317 1315 1313 1312 1310 1307 1304 1301 1299 1296 1292 1289 1286 1284 1282 1281 1279 1275 1271 1270 1269 1269 1267 1266 1264 1262 1261 1259 1256 1255 1253 1251 1250 1248 1246 1245 1244 1242 1240 1239 1238 1237 1236
1386 1384 1382 1381 1379 1378 1376 1375 1373 1372 1370 1368 1367 1365 1363 1362 1360 1358 1357 1355 1353 1352 1351 1349 1347 1345 1342 1340 1338 1336 1335 1334 1332 1331 1329 1328 1327 1326 1324 1323 1321 1319 1317 1315 1312 1310 1309 1307 1305 1302 1299 1297 1294 1291 1287 1283 1281 1280 1279 1277 1273 1270 1267 1266 1265 1265 1264 1261 1259 1258 1256 1254 1252 1250 1248 1246 1245 1243 1241 1241 1239 1238 1236 1235 1234 1233
1385 1383 1381 1380 1378 1377 1375 1373 1372 1370 1368 1367 1365 1363 1362 1361 1359 1358 1356 1354 1352 1350 1349 1348 1346 1344 1341 1337 1335 1333 1332 1331 1330 1329 1327 1326 1325 1323 1322 1320 1318 1317 1315 1313 1310 1308 1306 1304 1303 1300 1297 1295 1293 1290 1286 1282 1279 1277 1276 1274 1273 1270 1266 1263 1261 1261 1261 1259 1257 1255 1254 1252 1250 1247 1245 1243 1241 1240 1238 1237 1236 1235 1233 1232 1231 1229
1383 1381 1380 1378 1377 1375 1373 1372 1370 1369 1367 1365 1363 1362 1360 1359 1358 1357 1355 1353 1351 1349 1347 1346 1344 1342 1339 1336 1333 1331 1329 1327 1327 1326 1325 1323 1322 1321 1319 1318 1316 1314 1313 1311 1309 1306 1303 1301 1299 1297 1295 1293 1291 1287 1284 1280 1277 1275 1273 1271 1271 1270 1266 1262 1260 1258 1257 1255 1254 1252 1251 1249 1247 1245 1243 1241 1239 1237 1236 1234 1233 1231 1230 1228 1227 1225
1382 1380 1379 1377 1376 1374 1372 1371 1369 1367 1365 1363 1362 1360 1359 1358 1357 1355 1354 1352 1349 1347 1346 1345 1343 1341 1338 1335 1332 1330 1327 1325 1323 1322 1322 1321 1320 1319 1317 1316 1314 1312 1310 1309 1307 1305 1302 1299 1296 1294 1292 1291 1288 1285 1282 1279 1276 1273 1271 1269 1268 1266 1264 1261 1259 1257 1255 1253 1251 1250 1248 1247 1246 1243 1241 1239 1237 1235 1233 1231 1230 1228 1226 1225 1223 1222
1381 1379 1377 1376 1374 1372 1371 1369 1367 1366 1364 1362 1360 1359 1357 1357 1355 1354 1352 1351 1348 1347 1345 1343 1342 1340 1337 1333 1331 1328 1326 1323 1321 1320 1318 1317 1317 1316 1314 1313 1312 1310 1308 1306 1304 1302 1300 1297 1295 1292 1290 1287 1285 1282 1279 1277 1274 1271 1268 1267 1265 1264 1261 1259 1257 1255 1254 1251 1249 1247 1246 1245 1244 1242 1239 1236 1234 1231 1229 1228 1226 1225 1223 1221 1220 1218
1380 1378 1377 1375 1373 1371 1369 1367 1366 1364 1362 1361 1359 1357 1356 1355 1354 1352 1351 1349 1347 1345 1343 1342 1340 1338 1336 1333 1330 1328 1325 1322 1320 1317 1316 1315 1313 1312 1311 1310 1308 1307 1306 1303 1301 1299 1297 1295 1292 1290 1288 1285 1282 1278 1275 1274 1272 1270 1267 1265 1263 1261 1259 1256 1254 1253 1251 1250 1248 1246 1245 1243 1242 1239 1236 1234 1231 1228 1226 1224 1222 1221 1220 1218 1216 1215
1379 1377 1376 1374 1372 1370 1368 1366 1365 1363 1362 1359 1357 1356 1355 1354 1353 1351 1349 1347 1346 1344 1342 1340 1338 1336 1333 1331 1329 1327 1325 1322 1319 1317 1315 1313 1311 1310 1308 1307 1305 1304 1302 1300 1298 1296 1293 1291 1289 1288 1286 1284 1281 1276 1273 1271 1269 1268 1266 1263 1261 1259 1256 1254 1252 1251 1250 1248 1246 1244 1243 1241 1239 1237 1234 1231 1227 1224 1222 1220 1219 1217 1217 1216 1214 1212
1378 1376 1374 1372 1371 1369 1367 1365 1364 1362 1361 1358 1357 1355 1353 1352 1352 1350 1348 1346 1344 1342 1340 1338 1336 1334 1332 1329 1327 1325 1323 1321 1318 1316 1313 1312 1310 1308 1306 1304 1302 1300 1298 1296 1294 1292 1289 1287 1286 1285 1283 1282 1279 1275 1271 1269 1267 1265 1264 1262 1260 1258 1255 1252 1251 1249 1248 1246 1243 1242 1241 1239 1237 1235 1232 1229 1225 1221 1219 1216 1215 1214 1214 1213 1211 1209
1377 1375 1373 1372 1370 1368 1366 1365 1363 1362 1360 1358 1356 1354 1352 1350 1349 1348 1346 1344 1342 1341 1339 1337 1335 1333 1330 1327 1325 1323 1322 1319 1317 1314 1312 1310 1308 1307 1304 1302 1300 1297 1295 1292 1290 1288 1286 1284 1282 1281 1281 1280 1278 1275 1271 1268 1266 1264 1262 1261 1259 1256 1254 1251 1249 1247 1245 1243 1241 1238 1237 1235 1233 1232 1230 1227 1223 1219 1216 1214 1212 1211 1210 1210 1208 1206
1375 1374 1372 1371 1369 1367 1365 1364 1362 1360 1359 1357 1355 1353 1351 1349 1347 1346 1344 1342 1341 1339 1337 1335 1334 1332 1329 1326 1324 1322 1320 1318 1316 1313 1311 1309 1307 1305 1303 1301 1298 1296 1293 1290 1287 1285 1283 1281 1278 1277 1277 1277 1277 1275 1272 1268 1265 1263 1261 1258 1256 1255 1253 1250 1247 1244 1242 1240 1238 1236 1233 1232 1230 1228 1227 1225 1221 1218 1214 1212 1209 1208 1207 1206 1205 1203